EW3670 Weather Reports


Display with metric or nautical units.
time (UTC)temp
F
wind
direction
speed
MPH
gust
MPH
rain 1hr
in
rain 24hr
in
rain mn
in
humidity
%
barometer
mb
20260505060056 59 270 0.0 2.0 0.00 0.06 0.00 56 998.7
20260505055549 59 270 0.0 2.0 0.00 0.06 0.00 56 998.7
20260505055049 59 0 0.0 2.0 0.00 0.06 0.00 56 998.7
20260505054558 59 0 0.0 2.0 0.00 0.06 0.00 55 998.6
20260505054048 59 0 0.0 4.0 0.00 0.06 0.00 55 998.6
20260505053550 59 0 0.0 4.0 0.00 0.06 0.00 55 998.6
20260505053105 59 270 0.0 4.0 0.00 0.06 0.00 56 998.8
20260505052553 59 0 1.0 4.0 0.00 0.06 0.00 56 998.8
20260505052051 59 0 1.0 4.0 0.00 0.06 0.00 56 998.9
20260505051553 60 0 0.0 4.0 0.00 0.06 0.00 56 999.0
20260505051050 60 233 0.0 4.0 0.00 0.06 0.00 56 999.0
20260505050549 60 233 1.0 4.0 0.00 0.06 0.00 56 999.0
20260505041553 61 259 2.0 7.0 0.00 0.06 0.00 55 999.4
20260505041049 61 260 1.0 6.0 0.00 0.06 0.00 55 999.3
20260505040553 61 260 0.0 6.0 0.00 0.06 0.00 55 999.3
20260505040056 61 0 2.0 6.0 0.00 0.06 0.00 55 999.3
20260505035549 62 261 1.0 7.0 0.00 0.06 0.06 54 999.4
20260505035053 62 0 1.0 7.0 0.00 0.06 0.06 53 999.4
20260505034558 62 261 2.0 7.0 0.00 0.06 0.06 53 999.4
20260505034049 62 260 1.0 6.0 0.00 0.06 0.06 53 999.3
20260505033548 63 260 1.0 8.0 0.00 0.06 0.06 52 999.4
20260505033112 63 270 1.0 8.0 0.00 0.06 0.06 52 999.5
20260505032548 63 248 0.0 7.0 0.00 0.06 0.06 52 999.6
20260505032048 63 263 1.0 4.0 0.00 0.06 0.06 52 999.6
20260505031552 63 263 1.0 6.0 0.00 0.06 0.06 52 999.7
20260505031055 63 264 1.0 7.0 0.00 0.06 0.06 52 999.7
20260505030553 63 264 2.0 7.0 0.00 0.06 0.06 52 999.6
20260505030056 63 238 1.0 7.0 0.00 0.06 0.06 52 999.6
20260505025550 63 236 1.0 7.0 0.00 0.06 0.06 52 999.6
20260505025048 63 235 1.0 10.0 0.00 0.06 0.06 52 999.5
20260505024600 64 242 2.0 10.0 0.00 0.06 0.06 52 999.5
20260505024049 64 208 1.0 8.0 0.00 0.06 0.06 52 999.6
20260505023549 64 257 0.0 7.0 0.00 0.06 0.06 53 999.6
20260505023106 64 257 2.0 7.0 0.00 0.06 0.06 53 999.7
20260505022551 64 267 2.0 6.0 0.00 0.06 0.06 53 999.6
20260505022052 64 271 2.0 6.0 0.00 0.06 0.06 53 999.7
20260505021557 64 241 3.0 6.0 0.00 0.06 0.06 53 999.7
20260505021049 64 0 1.0 5.0 0.00 0.06 0.06 53 999.8
20260505020549 64 232 0.0 4.0 0.00 0.06 0.06 53 999.7
20260505020055 64 232 1.0 5.0 0.00 0.06 0.06 52 999.7
20260505015551 65 0 1.0 5.0 0.00 0.06 0.06 52 999.7
20260505015049 65 234 0.0 4.0 0.00 0.06 0.06 52 999.7
20260505014555 65 0 1.0 4.0 0.00 0.06 0.06 51 999.7
20260505014050 65 0 2.0 5.0 0.00 0.06 0.06 51 999.8
20260505013551 65 236 1.0 7.0 0.00 0.06 0.06 51 999.8
20260505013052 65 236 1.0 8.0 0.00 0.06 0.06 51 999.8
20260505012552 65 236 2.0 8.0 0.00 0.06 0.06 51 999.8
20260505012053 65 244 0.0 8.0 0.00 0.06 0.06 51 1000.0
20260505011600 65 244 0.0 8.0 0.00 0.06 0.06 51 1000.0
20260505011049 66 242 1.0 8.0 0.00 0.06 0.06 51 999.9
20260505010548 66 244 2.0 7.0 0.00 0.06 0.06 51 999.9
20260505010058 66 263 1.0 7.0 0.00 0.06 0.06 51 999.8
20260505005552 66 0 2.0 7.0 0.00 0.06 0.06 51 999.9
20260505005049 66 254 0.0 5.0 0.00 0.06 0.06 51 999.8
20260505004559 66 0 1.0 6.0 0.00 0.06 0.06 50 999.7
20260505004052 66 254 1.0 6.0 0.00 0.06 0.06 50 999.7
20260505003549 67 0 1.0 5.0 0.00 0.06 0.06 50 999.6
20260505003101 67 0 1.0 5.0 0.00 0.06 0.06 50 999.7
20260505002548 67 235 1.0 8.0 0.00 0.06 0.06 49 999.6
20260505002052 67 235 1.0 8.0 0.00 0.06 0.06 48 999.6
20260505001553 68 235 2.0 7.0 0.00 0.06 0.06 47 999.6
20260505001052 68 238 2.0 7.0 0.00 0.06 0.06 46 999.6
20260505000553 68 238 2.0 7.0 0.00 0.06 0.06 46 999.6
20260505000059 68 234 2.0 7.0 0.00 0.06 0.06 45 999.5
20260504235549 68 236 2.0 5.0 0.00 0.06 0.06 45 999.3
20260504235049 68 235 2.0 7.0 0.00 0.06 0.06 45 999.4
20260504234615 69 0 1.0 8.0 0.00 0.06 0.06 44 999.4
20260504234051 69 223 2.0 8.0 0.00 0.06 0.06 44 999.3
20260504233552 69 236 3.0 7.0 0.00 0.06 0.06 44 999.4
20260504233052 69 251 3.0 9.0 0.00 0.06 0.06 44 999.4
20260504232551 69 233 1.0 9.0 0.00 0.06 0.06 44 999.3
20260504232049 69 232 3.0 9.0 0.00 0.06 0.06 43 999.4
20260504231601 69 277 3.0 10.0 0.00 0.06 0.06 43 999.3
20260504231049 69 284 2.0 10.0 0.00 0.06 0.06 43 999.3
20260504230549 69 288 2.0 10.0 0.00 0.06 0.06 43 999.4
20260504230053 69 239 4.0 10.0 0.00 0.06 0.06 42 999.3
20260504225554 70 232 4.0 11.0 0.00 0.06 0.06 42 999.2
20260504225052 70 293 3.0 11.0 0.00 0.06 0.06 42 999.3
20260504224606 70 284 2.0 12.0 0.00 0.06 0.06 42 999.3
20260504224050 70 244 3.0 15.0 0.00 0.06 0.06 42 999.3
20260504223552 70 239 5.0 15.0 0.00 0.06 0.06 42 999.2
20260504223052 70 221 3.0 12.0 0.00 0.06 0.06 42 999.3
20260504222552 70 236 5.0 12.0 0.00 0.06 0.06 42 999.2
20260504222049 71 246 4.0 12.0 0.00 0.06 0.06 42 999.2
20260504221603 71 242 5.0 12.0 0.00 0.06 0.06 42 999.4
20260504221049 71 225 4.0 14.0 0.00 0.06 0.06 41 999.3
20260504220549 71 233 3.0 14.0 0.00 0.06 0.06 42 999.4
20260504220055 71 227 4.0 14.0 0.00 0.06 0.06 41 999.4
20260504215549 71 197 4.0 14.0 0.00 0.06 0.06 41 999.4
20260504215052 71 245 4.0 14.0 0.00 0.06 0.06 41 999.4
20260504214556 71 223 5.0 15.0 0.00 0.06 0.06 41 999.4
20260504214048 71 283 6.0 15.0 0.00 0.06 0.06 41 999.6
20260504213552 71 264 6.0 14.0 0.00 0.06 0.06 40 999.6
20260504213103 71 0 3.0 15.0 0.00 0.06 0.06 41 999.6
20260504212552 71 244 4.0 15.0 0.00 0.06 0.06 41 999.6
20260504212054 71 239 6.0 15.0 0.00 0.06 0.06 41 999.6
20260504211553 71 230 6.0 19.0 0.00 0.06 0.06 40 999.6
20260504211051 71 207 5.0 19.0 0.00 0.06 0.06 41 999.5
20260504210551 71 250 4.0 12.0 0.00 0.06 0.06 41 999.7
20260504205551 71 221 4.0 14.0 0.00 0.06 0.06 41 999.5
20260504205053 71 230 6.0 13.0 0.00 0.06 0.06 41 999.5
20260504204635 70 265 3.0 10.0 0.00 0.06 0.06 42 999.6
20260504204048 70 216 3.0 11.0 0.00 0.06 0.06 42 999.6
20260504203552 70 247 4.0 18.0 0.00 0.06 0.06 43 999.5
20260504203054 70 285 6.0 18.0 0.00 0.06 0.06 42 999.6
20260504202552 70 227 5.0 18.0 0.00 0.06 0.06 42 999.6
20260504202052 70 235 5.0 18.0 0.00 0.06 0.06 42 999.8
20260504201552 70 242 6.0 18.0 0.00 0.06 0.06 42 999.8
20260504201052 70 280 2.0 11.0 0.00 0.06 0.06 43 999.9
20260504200552 70 281 3.0 15.0 0.00 0.06 0.06 43 1000.0
20260504200057 70 245 4.0 15.0 0.00 0.06 0.06 42 1000.2
20260504195551 70 239 3.0 13.0 0.00 0.06 0.06 44 1000.3
20260504195053 69 292 4.0 13.0 0.00 0.06 0.06 43 1000.3
20260504194558 69 244 3.0 10.0 0.00 0.06 0.06 44 1000.4
20260504194052 69 262 4.0 10.0 0.00 0.06 0.06 43 1000.4
20260504193554 69 300 4.0 11.0 0.00 0.06 0.06 44 1000.6
20260504193059 69 226 3.0 11.0 0.00 0.06 0.06 44 1000.6
20260504192552 69 260 4.0 11.0 0.00 0.06 0.06 44 1000.7
20260504192048 69 246 3.0 10.0 0.00 0.06 0.06 44 1000.7
20260504191552 69 238 3.0 10.0 0.00 0.06 0.06 44 1000.8
20260504191051 69 228 3.0 9.0 0.00 0.06 0.06 44 1000.8
20260504190551 69 255 2.0 9.0 0.00 0.06 0.06 45 1000.9
20260504190100 68 261 2.0 7.0 0.00 0.06 0.06 45 1000.9
20260504185551 68 244 1.0 6.0 0.00 0.06 0.06 47 1000.9
20260504185055 68 254 1.0 6.0 0.00 0.06 0.06 47 1001.0
20260504184602 67 263 2.0 10.0 0.00 0.06 0.06 48 1000.9
20260504184052 67 259 3.0 10.0 0.00 0.06 0.06 47 1001.1
20260504183549 67 235 4.0 11.0 0.00 0.06 0.06 46 1001.2
20260504183059 68 217 3.0 12.0 0.00 0.06 0.06 46 1001.2
20260504182554 68 279 3.0 12.0 0.00 0.06 0.06 46 1001.3
20260504182051 68 225 4.0 12.0 0.00 0.06 0.06 47 1001.3
20260504181555 67 248 3.0 11.0 0.00 0.06 0.06 48 1001.3
20260504181051 67 0 3.0 12.0 0.00 0.06 0.06 49 1001.5
20260504180555 68 236 3.0 12.0 0.00 0.06 0.06 48 1001.6
20260504180054 66 323 4.0 12.0 0.00 0.06 0.06 50 1001.6
20260504175553 66 275 1.0 9.0 0.00 0.06 0.06 50 1001.8
20260504175051 65 258 3.0 9.0 0.00 0.06 0.06 50 1001.9
20260504174553 66 240 3.0 8.0 0.00 0.06 0.06 50 1001.9
20260504174052 66 286 3.0 9.0 0.00 0.06 0.06 51 1001.9
20260504173551 65 212 4.0 9.0 0.00 0.06 0.06 50 1002.1
20260504173054 65 225 1.0 7.0 0.00 0.06 0.06 51 1002.3
20260504172552 65 292 1.0 8.0 0.00 0.06 0.06 52 1002.2
20260504172052 64 320 1.0 10.0 0.00 0.06 0.06 53 1002.3
20260504171553 64 288 3.0 10.0 0.00 0.06 0.06 54 1002.4
20260504171052 64 295 3.0 9.0 0.00 0.06 0.06 53 1002.6
20260504170552 64 217 2.0 9.0 0.00 0.06 0.06 53 1002.4
20260504151051 60 0 3.0 10.0 0.00 0.06 0.06 63 1003.4
20260504150555 60 334 3.0 9.0 0.00 0.06 0.06 64 1003.3
20260504141052 56 284 2.0 9.0 0.00 0.06 0.06 72 1003.4
20260504140552 56 300 1.0 8.0 0.00 0.06 0.06 70 1003.4
20260504130552 52 280 2.0 9.0 0.00 0.06 0.06 80 1003.3
20260504110549 48 0 2.0 8.0 0.00 0.06 0.06 88 1002.7
20260504100551 47 0 0.0 6.0 0.03 0.06 0.06 87 1002.4
20260504081555 47 0 0.0 1.0 0.00 0.01 0.01 83 1003.0
20260504081049 47 0 0.0 1.0 0.00 0.01 0.01 82 1003.0
20260504080548 47 0 0.0 4.0 0.00 0.01 0.01 82 1003.2
20260504070103 48 0 0.0 4.0 0.01 0.01 0.01 74 1003.7